OpenBCM V1.07b12 (Linux)

Packet Radio Mailbox

DB0FHN

[JN59NK Nuernberg]

 Login: GUEST





  
I6KZR  > KEPLER   11.02.03 00:16l 317 Lines 15752 Bytes #999 (0) @ WW
BID : 23070_IK6WID
Read: DB0FHN GUEST
Subj: 2L Keplerian Elements #041
Path: DB0FHN<DB0RGB<OK0PPL<RZ6HXA<SP7MGD<ON0BEL<IK1ZNW<IK2QCA<IK2YHJ<I4UKI<
      I6ZLO<IK6WID
Sent: 030210/2146Z @:IK6WID.#AP.IMAR.ITA.EU #:23070 [MONTE URANO]  FBB7.00i
From: I6KZR@IK6WID.#AP.IMAR.ITA.EU
To  : KEPLER@WW


OSCAR 7
1 07530U 74089B   03040.51393053 -.00000029  00000-0  10000-3 0  1481
2 07530 101.7633  88.3849 0012311  95.5087 264.7391 12.53564306292055
GOES 2
1 10061U 77048A   03028.56527598  .00000000  00000-0  10000-3 0   708
2 10061  14.1264  13.5931 0013180 196.1337 163.8523  0.99391768 38622
GOES 3
1 10953U 78062A   03039.96181962 -.00000091  00000-0  00000+0 0  9189
2 10953  13.4053  17.3037 0005282 341.3569  18.6578  1.00278937 43408
GOES 6
1 14050U 83041A   03040.07554305  .00000050  00000-0  10000-3 0  4211
2 14050  10.3882  35.5600 0003554 347.4720  12.5737  1.00299948130547
OSCAR 10
1 14129U 83058B   03036.77933919  .00000095  00000-0  10000-3 0  9157
2 14129  25.9013 166.4253 6030072 325.3874   7.1450  2.05865592119804
OSCAR 11 (UoSAT 2)
1 14781U 84021B   03041.55490850  .00001539  00000-0  22078-3 0   676
2 14781  98.1164  15.4168 0008248 233.7080 126.3369 14.77969508 15059
NOAA 10
1 16969U 86073A   03041.13471530  .00000150  00000-0  79838-4 0  6562
2 16969  98.7285  35.2622 0013327 110.0832 250.1781 14.27060157852702
GOES 7
1 17561U 87022A   03040.53468456  .00000058  00000-0  10000-3 0  8454
2 17561   7.5847  55.5978 0005361 259.2607 198.7278  1.00250809 41651
COSMOS 1861
1 18129U 87054A   03039.81633481  .00000062  00000-0  51143-4 0  1981
2 18129  82.9259 153.7691 0010130 254.9160 105.0873 13.72699664783175
EUTELSAT 1-F4 (ECS 4)
1 18351U 87078B   03039.82443930 -.00000215  00000-0  00000+0 0   388
2 18351   7.1778  58.7234 0006875 200.0416 160.0826  0.98690377 42589
NOAA 11
1 19531U 88089A   03041.09438221  .00000204  00000-0  12955-3 0  4940
2 19531  98.9021 122.5047 0011168 223.9109 136.1177 14.14533640741609
ASTRA 1A
1 19688U 88109B   03040.86925594  .00000044  00000-0  10000-3 0  5711
2 19688   1.3563  94.8238 0004383 213.9848 148.8274  1.00273129 32115
OSCAR 14 (UOSAT 3)
1 20437U 90005B   03041.17943944  .00000137  00000-0  67208-4 0  1618
2 20437  98.2741  85.1934 0009869 225.5650 134.4725 14.31234820681296
OSCAR 15 (UOSAT 4)
1 20438U 90005C   03038.11465241  .00000105  00000-0  56327-4 0  7743
2 20438  98.2485  71.4458 0009010 248.0097 112.0128 14.30194732680524
OSCAR 16 (PACSAT)
1 20439U 90005D   03040.21713886  .00000190  00000-0  87201-4 0  8491
2 20439  98.3188  95.9060 0010158 235.0807 124.9422 14.31468157681195
OSCAR 17 (DOVE)
1 20440U 90005E   03037.69200758  .00000210  00000-0  94166-4 0  7254
2 20440  98.3375  97.3502 0010242 242.5884 117.4255 14.31744553680900
OSCAR 18 (WEBERSAT)
1 20441U 90005F   03040.89741816  .00000172  00000-0  80196-4 0    85
2 20441  98.3345  99.6466 0010901 231.7955 128.2248 14.31550059681340
OSCAR 19 (LUSAT)
1 20442U 90005G   03040.24784930  .00000165  00000-0  77679-4 0  9598
2 20442  98.3480 102.0301 0011065 235.0516 124.9625 14.31712481681307
JAS 1B (FUJI 2)
1 20480U 90013C   03039.95711336 -.00000023  00000-0  19522-4 0  4610
2 20480  99.0443   4.5076 0540812  25.6387 337.0501 12.83329359609287
HST
1 20580U 90037B   03041.36427012  .00002781  00000-0  21793-3 0  3220
2 20580  28.4678  91.3701 0004218 179.9886 287.1780 14.97783309501400
EUTELSAT 2-F1
1 20777U 90079B   03037.63706572 -.00000096  00000-0  10000-3 0   279
2 20777   3.4727  84.6705 0000971 307.2622  49.7531  1.00271116 25978
FENGYUN 1B
1 20788U 90081A   03041.18473346 -.00000188  00000-0 -94014-4 0  8784
2 20788  99.0265  23.4485 0014986 253.6168 106.3350 14.02134002636362
EUTELSAT 2-F2
1 21056U 91003B   03037.89205237  .00000124  00000-0  10000-3 0  6163
2 21056   2.7020  88.0399 0003114 262.5734 155.5121  1.00274081 31762
INFORMATOR 1
1 21087U 91006A   03039.87990461  .00000065  00000-0  52112-4 0  5973
2 21087  82.9433 324.5811 0033906 279.0745  80.6573 13.74925208603557
COSMOS 2123
1 21089U 91007A   03040.87750754  .00000064  00000-0  51838-4 0  4890
2 21089  82.9227 187.8220 0028264 313.0251  46.8536 13.74403191602594
ASTRA 1B
1 21139U 91015A   03037.00000000  .00000120  00000-0  10000-3 0  1590
2 21139   0.0122 319.8851 0002995  65.1991 129.8295  1.00273184 32067
METEOSAT 5 (MOP 2)
1 21140U 91015B   03040.81509400  .00000028  00000-0  10000-3 0  7103
2 21140   5.6099  70.0073 0001625 155.0768 270.5978  1.00271950 45969
NOAA 12
1 21263U 91032A   03041.12852001  .00000326  00000-0  15751-3 0  9630
2 21263  98.6250  30.8988 0013710  48.3017 311.9333 14.25074316610011
OSCAR 22 (UoSAT 5)
1 21575U 91050B   03040.53896410  .00000318  00000-0  11580-3 0  7211
2 21575  98.1400  33.1162 0007658 152.9541 207.2048 14.39147058606987
METEOR 3-5
1 21655U 91056A   03041.54524583  .00000051  00000-0  10000-3 0  4988
2 21655  82.5543  44.5280 0012415 215.8451 144.1839 13.16980377552423
UARS
1 21701U 91063B   03041.44759780  .00000878  00000-0  83881-4 0  8211
2 21701  56.9808  64.9225 0004807 113.5004 246.6550 15.02840232624490
EUTELSAT 2-F3
1 21803U 91083A   03040.18650464  .00000136  00000-0  10000-3 0  5200
2 21803   2.5751  89.2283 0002532 256.0076 242.2115  1.00275366 36901
INMARSAT 2-F3
1 21814U 91084B   03040.61165547  .00000120  00000-0  10000-3 0  6141
2 21814   1.7281  57.9063 0002567 267.2710 252.2641  1.00274458 40807
INMARSAT 2-F4
1 21940U 92021B   03033.80414906 -.00000361  00000-0  10000-3 0  5688
2 21940   2.3665  19.1794 0001463 307.8659 203.9708  1.00267475 39523
EUTELSAT 2-F4
1 22028U 92041B   03040.17505788 -.00000091  00000-0  10000-3 0  3289
2 22028   1.6940  92.6931 0005890 220.1582 236.7035  1.00271741 31685
OSCAR 23 (KITSAT 1)
1 22077U 92052B   03040.23840020 -.00000037  00000-0  10000-3 0  1539
2 22077  66.0868 145.2674 0015448 276.7072  83.2191 12.86408059493100
ASTRA 1C
1 22653U 93031A   03037.00000000  .00000037  00000-0  10000-3 0  7854
2 22653   0.0122 319.8851 0002995  65.1991 116.0233  1.00273184 30764
METEOR 2-21
1 22782U 93055A   03041.43482418  .00000145  00000-0  11767-3 0  5143
2 22782  82.5465 221.3441 0022740  12.4685 347.7051 13.83532033476961
KITSAT B
1 22825U 93061C   03040.85972933  .00000132  00000-0  68464-4 0  4826
2 22825  98.2755  70.9998 0007669 289.1708  70.8644 14.28939498488637
POSAT 1
1 22826U 93061D   03041.17140771  .00000157  00000-0  77975-4 0  3058
2 22826  98.2759  72.4073 0008381 289.0360  70.9911 14.29162487488723
ITAMSAT
1 22828U 93061F   03041.50370842  .00000137  00000-0  69750-4 0  4221
2 22828  98.2731  72.9873 0009101 263.3529  96.6625 14.29505159456977
EYESAT A
1 22829U 93061G   03040.60459831  .00000232  00000-0  10636-3 0  4468
2 22829  98.2723  72.7327 0008924 265.5150  94.5011 14.29763479488777
METEOSAT 6
1 22912U 93073B   03040.18116899  .00000073  00000-0  00000+0 0  6725
2 22912   2.6546  82.4531 0001310 198.7470 292.5214  1.00279715 32209
GOES 8
1 23051U 94022A   03041.48580315 -.00000240  00000-0  00000+0 0  5992
2 23051   0.2775 103.3427 0000793 292.0868 204.6219  1.00279841 39725
ASTRA 1D
1 23331U 94070A   03037.01194446  .00000140  00000-0  00000+0 0  8133
2 23331   0.0520 224.9646 0003223  53.2445 245.9967  1.00274944 30744
RADIO ROSTO
1 23439U 94085A   03038.20708573 -.00000034  00000-0  24732-3 0  6809
2 23439  64.8156  59.8551 0147092 117.4218 244.1751 11.27547676334317
NOAA 14
1 23455U 94089A   03041.12026627  .00000115  00000-0  86225-4 0  5173
2 23455  99.1873  59.4656 0008611 252.3505 107.6725 14.13293455418289
HIMAWARI 5 (GMS 5)
1 23522U 95011B   03038.62260777 -.00000280  00000-0  00000+0 0   880
2 23522   1.7497  83.8464 0000375  22.3751  34.9277  1.00260935 28785
HOT BIRD 1
1 23537U 95016B   03013.80550721  .00000107  00000-0  10000-3 0  5332
2 23537   0.0070 236.2796 0008090  86.9786  92.5958  1.00275871 28611
GOES 9
1 23581U 95025A   03038.51389009  .00000137  00000-0  00000+0 0  5063
2 23581   0.2984 277.9200 0012483 254.1862   2.0839  1.00052947 28254
INMARSAT 3-F1
1 23839U 96020A   03039.83740418  .00000025  00000-0  00000+0 0  8649
2 23839   0.0590 345.5703 0005087 352.8007 165.4650  1.00272502 25118
ASTRA 1F
1 23842U 96021A   03037.00000000  .00000120  00000-0  10000-3 0  5588
2 23842   0.0122 319.8851 0002995  65.1991 129.8369  1.00273184 24995
JAS 2
1 24278U 96046B   03041.48012569  .00000045  00000-0  84099-4 0  5596
2 24278  98.5347 193.7971 0349943 237.4601 119.2284 13.52871583320211
UNAMSAT
1 24305U 96052B   03040.74603033  .00000205  00000-0  20364-3 0  6610
2 24305  82.9359 269.3100 0028629 226.2414 133.6361 13.73450989322279
INMARSAT 3-F2
1 24307U 96053A   03038.02787617 -.00000120  00000-0  00000+0 0   805
2 24307   0.0630  35.8581 0006606 335.3144 120.0042  1.00271971 23505
HOT BIRD 2
1 24665U 96067A   03022.98977813  .00000000  00000-0  10000-3 0  3404
2 24665   0.0347 162.8644 0004202 151.1719 177.1880  1.00271548 22995
INMARSAT 3-F3
1 24674U 96070A   03038.40582758  .00000046  00000-0  10000-3 0  9857
2 24674   0.0310 322.4679 0004281 343.8370 155.0355  1.00275214 22476
GOES 10
1 24786U 97019A   03036.66923413  .00000082  00000-0  00000+0 0  5343
2 24786   0.1055 108.1749 0003144 218.8964 275.0212  1.00287729 21200
INMARSAT 3-F4
1 24819U 97027A   03041.33764581 -.00000276  00000-0  10000-3 0  8780
2 24819   0.0731 292.2479 0003919  49.7449 225.5640  1.00272216 20929
FENGYUN 2A
1 24834U 97029A   03038.73979775 -.00000179  00000-0  00000+0 0  9544
2 24834   2.5457  88.5742 0003066 269.5556 130.8933  1.00259270 20738
HOT BIRD 3
1 24931U 97049A   03023.22766377  .00000000  00000-0  10000-3 0  4210
2 24931   0.0604 227.5595 0010036  81.3762 268.1866  1.00274291 19804
METEOSAT 7
1 24932U 97049B   03040.02185186  .00000008  00000-0  00000+0 0  2447
2 24932   0.1944  60.0395 0001114 262.1122 184.6681  1.00277589 19920
